Orbital Elements at Epoch 2459000.5 (2020-May-31.0) TDB
Reference: JPL 10 (heliocentric ecliptic J2000)
Element | Value | Uncertainty (1-sigma) | Units |
e | .1162167662965308 | 5.6499e-08 | |
a | 2.723312043935972 | 1.9945e-08 | au |
q | 2.406817524573337 | 1.5262e-07 | au |
i | 10.26315162917959 | 4.392e-06 | deg |
node | 97.63679900319401 | 3.9302e-05 | deg |
peri | 51.36650157733999 | 4.7684e-05 | deg |
M | 220.91618394714 | 3.0545e-05 | deg |
tp | 2459634.688896668975 (2022-Feb-24.18889667) | 0.0001431 | TDB |
period | 1641.513795638598 4.49 | 1.8033e-05 4.937e-08 | d yr |
n | .2193097620967293 | 2.4093e-09 | deg/d |
Q | 3.039806563298606 | 2.2263e-08 | au |
|
| | Orbit Determination Parameters
Additional Information
|